FW4741 Weather Reports


Display with metric or nautical units.
time (UTC)temp
F
wind
direction
speed
MPH
gust
MPH
rain 1hr
in
rain 24hr
in
rain mn
in
humidity
%
barometer
mb
20260831022102 61 77 2.0 6.0 0.00 0.00 0.00 90 1024.2
20260831021603 61 77 2.0 6.0 0.00 0.00 0.00 90 1024.2
20260831021103 61 77 2.0 6.0 0.00 0.00 0.00 88 1024.0
20260831020103 61 77 2.0 6.0 0.00 0.00 0.00 89 1023.8
20260831014603 61 77 2.0 6.0 0.00 0.00 0.00 91 1023.5
20260831013602 61 77 2.0 6.0 0.00 0.00 0.00 89 1023.4
20260831013102 61 77 2.0 6.0 0.00 0.00 0.00 88 1023.6
20260831012603 61 77 2.0 6.0 0.00 0.00 0.00 88 1023.6
20260831012103 61 77 2.0 6.0 0.00 0.00 0.00 87 1023.6
20260831011603 61 77 2.0 6.0 0.00 0.00 0.00 87 1023.6
20260831011103 61 77 2.0 6.0 0.00 0.00 0.00 87 1023.7
20260831010603 62 77 2.0 6.0 0.00 0.00 0.00 87 1023.7
20260831005103 65 77 2.0 6.0 0.00 0.00 0.00 80 1023.5
20260831004602 65 77 2.0 6.0 0.00 0.00 0.00 76 1023.6
20260831004103 65 77 2.0 6.0 0.00 0.00 0.00 72 1023.5
20260831003603 66 77 2.0 6.0 0.00 0.00 0.00 72 1023.5
20260831002602 67 77 2.0 6.0 0.00 0.00 0.00 69 1023.4
20260831002103 68 77 2.0 6.0 0.00 0.00 0.00 64 1023.4
20260831001602 68 77 2.0 6.0 0.00 0.00 0.00 65 1023.2
20260831001102 69 77 2.0 6.0 0.00 0.00 0.00 62 1023.2
20260831000603 70 77 2.0 6.0 0.00 0.00 0.00 60 1023.1
20260830235602 72 77 2.0 6.0 0.00 0.00 0.00 58 1023.0
20260830235103 73 77 2.0 6.0 0.00 0.00 0.00 58 1022.9
20260830234102 74 77 2.0 6.0 0.00 0.00 0.00 59 1022.5
20260830233603 74 77 2.0 6.0 0.00 0.00 0.00 59 1022.3
20260830233103 75 77 2.0 6.0 0.00 0.00 0.00 57 1022.3
20260830232603 75 77 2.0 6.0 0.00 0.00 0.00 57 1022.3
20260830232103 75 77 2.0 6.0 0.00 0.00 0.00 57 1022.2
20260830231603 75 77 2.0 6.0 0.00 0.00 0.00 58 1022.2
20260830231103 75 77 2.0 6.0 0.00 0.00 0.00 58 1022.0
20260830230602 75 77 2.0 6.0 0.00 0.00 0.00 57 1021.9
20260830230103 75 77 2.0 6.0 0.00 0.00 0.00 57 1022.0
20260830225603 75 77 2.0 6.0 0.00 0.00 0.00 57 1022.0
20260830225103 76 77 2.0 6.0 0.00 0.00 0.00 58 1022.0
20260830224103 76 77 2.0 6.0 0.00 0.00 0.00 58 1021.9
20260830223603 76 77 2.0 6.0 0.00 0.00 0.00 58 1021.9
20260830223103 76 77 2.0 6.0 0.00 0.00 0.00 58 1021.9
20260830222603 75 77 2.0 6.0 0.00 0.00 0.00 61 1021.8
20260830222103 75 77 2.0 6.0 0.00 0.00 0.00 61 1021.7
20260830221602 75 77 2.0 6.0 0.00 0.00 0.00 62 1021.8
20260830221102 75 77 2.0 6.0 0.00 0.00 0.00 60 1021.8
20260830215602 75 77 2.0 6.0 0.00 0.00 0.00 60 1021.7
20260830214103 75 77 2.0 6.0 0.00 0.00 0.00 62 1021.9
20260830213602 76 77 2.0 6.0 0.00 0.00 0.00 61 1021.9
20260830213103 77 77 2.0 6.0 0.00 0.00 0.00 60 1021.9
20260830212603 78 77 2.0 6.0 0.00 0.00 0.00 58 1021.9
20260830212102 78 77 2.0 6.0 0.00 0.00 0.00 57 1021.9
20260830211603 78 77 2.0 6.0 0.00 0.00 0.00 58 1021.9
20260830211102 78 77 2.0 6.0 0.00 0.00 0.00 58 1022.0
20260830210603 78 77 2.0 6.0 0.00 0.00 0.00 57 1021.9
20260830205603 77 77 2.0 6.0 0.00 0.00 0.00 59 1022.1
20260830205102 76 77 2.0 6.0 0.00 0.00 0.00 60 1022.2
20260830203603 77 77 2.0 6.0 0.00 0.00 0.00 60 1022.3
20260830203103 77 77 2.0 6.0 0.00 0.00 0.00 59 1022.3
20260830202603 78 77 2.0 6.0 0.00 0.00 0.00 57 1022.3
20260830202103 78 77 2.0 6.0 0.00 0.00 0.00 58 1022.3
20260830201603 78 77 2.0 6.0 0.00 0.00 0.00 58 1022.3
20260830201103 78 77 2.0 6.0 0.00 0.00 0.00 58 1022.4
20260830200603 77 77 2.0 6.0 0.00 0.00 0.00 58 1022.5
20260830200103 77 77 2.0 6.0 0.00 0.00 0.00 58 1022.6
20260830195603 77 77 2.0 6.0 0.00 0.00 0.00 59 1022.7
20260830195102 77 77 2.0 6.0 0.00 0.00 0.00 58 1022.7
20260830194603 77 77 2.0 6.0 0.00 0.00 0.00 59 1022.7
20260830194103 77 77 2.0 6.0 0.00 0.00 0.00 59 1022.8
20260830193602 77 77 2.0 6.0 0.00 0.00 0.00 59 1022.9
20260830193103 77 77 2.0 6.0 0.00 0.00 0.00 59 1023.0
20260830192603 77 77 2.0 6.0 0.00 0.00 0.00 58 1023.0
20260830192103 77 77 2.0 6.0 0.00 0.00 0.00 59 1023.1
20260830191603 77 77 2.0 6.0 0.00 0.00 0.00 58 1023.2
20260830185603 76 77 2.0 6.0 0.00 0.00 0.00 58 1023.3
20260830185104 76 77 2.0 6.0 0.00 0.00 0.00 58 1023.4
20260830184603 76 77 2.0 6.0 0.00 0.00 0.00 58 1023.5
20260830183603 77 77 2.0 6.0 0.00 0.00 0.00 56 1023.5
20260830183103 76 77 2.0 6.0 0.00 0.00 0.00 55 1023.5
20260830182602 76 77 2.0 6.0 0.00 0.00 0.00 55 1023.6
20260830182103 76 77 2.0 6.0 0.00 0.00 0.00 54 1023.6
20260830181603 76 77 2.0 6.0 0.00 0.00 0.00 55 1023.7
20260830181103 76 77 2.0 6.0 0.00 0.00 0.00 54 1023.6
20260830180603 76 77 2.0 6.0 0.00 0.00 0.00 55 1023.6
20260830175603 76 77 2.0 6.0 0.00 0.00 0.00 55 1023.6
20260830174603 75 77 2.0 6.0 0.00 0.00 0.00 57 1023.7
20260830174103 75 77 2.0 6.0 0.00 0.00 0.00 56 1023.7
20260830173602 75 77 2.0 6.0 0.00 0.00 0.00 57 1023.8
20260830173103 75 77 2.0 6.0 0.00 0.00 0.00 58 1023.8
20260830172102 75 77 2.0 6.0 0.00 0.00 0.00 58 1023.9
20260830171603 75 77 2.0 6.0 0.00 0.00 0.00 57 1023.8
20260830171103 75 77 2.0 6.0 0.00 0.00 0.00 58 1023.8
20260830170603 74 77 2.0 6.0 0.00 0.00 0.00 57 1023.8
20260830165603 75 77 2.0 6.0 0.00 0.00 0.00 58 1023.9
20260830165102 75 77 2.0 6.0 0.00 0.00 0.00 55 1023.9
20260830164603 75 77 2.0 6.0 0.00 0.00 0.00 56 1023.9
20260830164103 74 77 2.0 6.0 0.00 0.00 0.00 56 1023.9
20260830163603 74 77 2.0 6.0 0.00 0.00 0.00 57 1024.0
20260830163103 74 77 2.0 6.0 0.00 0.00 0.00 56 1024.0
20260830162602 74 77 2.0 6.0 0.00 0.00 0.00 59 1024.0
20260830162103 74 77 2.0 6.0 0.00 0.00 0.00 61 1024.1
20260830161603 73 77 2.0 6.0 0.00 0.00 0.00 62 1024.1
20260830161103 73 77 2.0 6.0 0.00 0.00 0.00 64 1024.2
20260830160603 73 77 2.0 6.0 0.00 0.00 0.00 63 1024.2
20260830155602 71 77 2.0 6.0 0.00 0.00 0.00 62 1024.3
20260830155102 71 77 2.0 6.0 0.00 0.00 0.00 63 1024.3
20260830154603 71 77 2.0 6.0 0.00 0.00 0.00 66 1024.4
20260830154102 71 77 2.0 6.0 0.00 0.00 0.00 69 1024.5
20260830153103 70 77 2.0 6.0 0.00 0.00 0.00 68 1024.6
20260830152602 69 77 2.0 6.0 0.00 0.00 0.00 69 1024.6
20260830151103 68 77 2.0 6.0 0.00 0.00 0.00 72 1024.6
20260830150603 68 77 2.0 6.0 0.00 0.00 0.00 72 1024.7
20260830145603 67 77 2.0 6.0 0.00 0.00 0.00 72 1024.6
20260830145103 67 77 2.0 6.0 0.00 0.00 0.00 73 1024.6
20260830144603 66 77 2.0 6.0 0.00 0.00 0.00 74 1024.5
20260830143103 65 77 2.0 6.0 0.00 0.00 0.00 75 1024.6
20260830142102 64 77 2.0 6.0 0.00 0.00 0.00 78 1024.7
20260830141603 64 77 2.0 6.0 0.00 0.00 0.00 78 1024.6
20260830141103 64 77 2.0 6.0 0.00 0.00 0.00 76 1024.5
20260830140602 63 77 2.0 6.0 0.00 0.00 0.00 77 1024.6
20260830135603 62 77 2.0 6.0 0.00 0.00 0.00 78 1024.5
20260830135103 62 77 2.0 6.0 0.00 0.00 0.00 78 1024.5
20260830134603 61 77 2.0 6.0 0.00 0.00 0.00 79 1024.5
20260830134103 60 77 2.0 6.0 0.00 0.00 0.00 79 1024.6
20260830133603 60 77 2.0 6.0 0.00 0.00 0.00 79 1024.6
20260830133103 59 77 2.0 6.0 0.00 0.00 0.00 81 1024.5
20260830132603 59 77 2.0 6.0 0.00 0.00 0.00 83 1024.5
20260830132102 59 77 2.0 6.0 0.00 0.00 0.00 84 1024.5
20260830131603 58 77 2.0 6.0 0.00 0.00 0.00 84 1024.5
20260830131104 58 77 2.0 6.0 0.00 0.00 0.00 85 1024.5
20260830125603 58 77 2.0 6.0 0.00 0.00 0.00 84 1024.3
20260830125103 59 77 2.0 6.0 0.00 0.00 0.00 84 1024.3
20260830124603 59 77 2.0 6.0 0.00 0.00 0.00 82 1024.3
20260830123603 59 77 2.0 6.0 0.00 0.00 0.00 82 1024.2
20260830123102 59 77 2.0 6.0 0.00 0.00 0.00 82 1024.2
20260830122603 58 77 2.0 6.0 0.00 0.00 0.00 84 1024.2
20260830122103 58 77 2.0 6.0 0.00 0.00 0.00 86 1024.1
20260830121602 58 77 2.0 6.0 0.00 0.00 0.00 86 1024.1
20260830121103 59 77 2.0 6.0 0.00 0.00 0.00 87 1024.0
20260830120603 59 77 2.0 6.0 0.00 0.00 0.00 86 1024.0
20260830120103 59 77 2.0 6.0 0.00 0.00 0.00 86 1024.0
20260830115103 59 77 2.0 6.0 0.00 0.00 0.00 87 1024.0
20260830114603 60 77 2.0 6.0 0.00 0.00 0.00 86 1024.0
20260830114103 60 77 2.0 6.0 0.00 0.00 0.00 86 1023.9
20260830113603 59 77 2.0 6.0 0.00 0.00 0.00 87 1023.8
20260830113103 59 77 2.0 6.0 0.00 0.00 0.00 88 1023.8
20260830112603 59 77 2.0 6.0 0.00 0.00 0.00 88 1023.9
20260830111603 59 77 2.0 6.0 0.00 0.00 0.00 88 1023.8
20260830111103 60 77 2.0 6.0 0.00 0.00 0.00 88 1023.8
20260830110603 60 77 2.0 6.0 0.00 0.00 0.00 88 1023.8
20260830105602 60 77 2.0 6.0 0.00 0.00 0.00 87 1023.7
20260830105103 61 77 2.0 6.0 0.00 0.00 0.00 86 1023.8
20260830104603 61 77 2.0 6.0 0.00 0.00 0.00 85 1023.8
20260830104103 62 77 2.0 6.0 0.00 0.00 0.00 84 1023.8
20260830103602 62 77 2.0 6.0 0.00 0.00 0.00 84 1023.7
20260830103103 62 77 2.0 6.0 0.00 0.00 0.00 84 1023.7
20260830102603 61 77 2.0 6.0 0.00 0.00 0.00 84 1023.7
20260830102103 61 77 2.0 6.0 0.00 0.00 0.00 84 1023.7
20260830101603 61 77 2.0 6.0 0.00 0.00 0.00 84 1023.7
20260830101103 61 77 2.0 6.0 0.00 0.00 0.00 84 1023.6
20260830100603 62 77 2.0 6.0 0.00 0.00 0.00 83 1023.7
20260830095102 62 77 2.0 6.0 0.00 0.00 0.00 83 1023.7
20260830094603 62 77 2.0 6.0 0.00 0.00 0.00 83 1023.7
20260830094103 62 77 2.0 6.0 0.00 0.00 0.00 82 1023.7
20260830093603 63 77 2.0 6.0 0.00 0.00 0.00 82 1023.7
20260830093104 63 77 2.0 6.0 0.00 0.00 0.00 81 1023.8
20260830092603 63 77 2.0 6.0 0.00 0.00 0.00 81 1023.8
20260830092103 63 77 2.0 6.0 0.00 0.00 0.00 82 1023.8
20260830091103 63 77 2.0 6.0 0.00 0.00 0.00 81 1023.9
20260830090603 63 77 2.0 6.0 0.00 0.00 0.00 81 1023.9
20260830085603 63 77 2.0 6.0 0.00 0.00 0.00 80 1023.8
20260830084602 64 77 2.0 6.0 0.00 0.00 0.00 80 1023.8
20260830084103 64 77 2.0 6.0 0.00 0.00 0.00 79 1023.9
20260830083603 64 77 2.0 6.0 0.00 0.00 0.00 79 1023.9
20260830083103 64 77 2.0 6.0 0.00 0.00 0.00 79 1023.9
20260830082602 64 77 2.0 6.0 0.00 0.00 0.00 79 1024.0
20260830082103 64 77 2.0 6.0 0.00 0.00 0.00 79 1024.0
20260830081603 64 77 2.0 6.0 0.00 0.00 0.00 78 1024.0
20260830081103 65 77 2.0 6.0 0.00 0.00 0.00 78 1024.0
20260830080603 65 77 2.0 6.0 0.00 0.00 0.00 78 1024.0
20260830075603 65 77 2.0 6.0 0.00 0.00 0.00 78 1024.1
20260830075103 65 77 2.0 6.0 0.00 0.00 0.00 78 1024.2
20260830074602 65 77 2.0 6.0 0.00 0.00 0.00 78 1024.2
20260830074103 65 77 2.0 6.0 0.00 0.00 0.00 78 1024.2
20260830073603 65 77 2.0 6.0 0.00 0.00 0.00 78 1024.3
20260830073103 65 77 2.0 6.0 0.00 0.00 0.00 78 1024.3
20260830072603 65 77 2.0 6.0 0.00 0.00 0.00 78 1024.4
20260830072102 65 77 2.0 6.0 0.00 0.00 0.00 78 1024.4
20260830071602 65 77 2.0 6.0 0.00 0.00 0.00 77 1024.5
20260830070603 65 77 2.0 6.0 0.00 0.00 0.00 77 1024.5
20260830065603 65 77 2.0 6.0 0.00 0.00 0.00 76 1024.6
20260830065103 65 77 2.0 6.0 0.00 0.00 0.00 76 1024.7
20260830064602 65 77 2.0 6.0 0.00 0.00 0.00 76 1024.7
20260830063603 65 77 2.0 6.0 0.00 0.00 0.00 76 1024.8
20260830063102 65 77 2.0 6.0 0.00 0.00 0.00 76 1024.8
20260830062604 65 77 2.0 6.0 0.00 0.00 0.00 76 1024.8
20260830062103 65 77 2.0 6.0 0.00 0.00 0.00 76 1024.8
20260830061103 64 77 2.0 6.0 0.00 0.00 0.00 77 1024.9
20260830060603 64 77 2.0 6.0 0.00 0.00 0.00 78 1024.9
20260830055603 63 77 2.0 6.0 0.00 0.00 0.00 79 1024.9
20260830054603 63 77 2.0 6.0 0.00 0.00 0.00 79 1024.9
20260830054103 63 77 2.0 6.0 0.00 0.00 0.00 79 1024.9
20260830053603 63 77 2.0 6.0 0.00 0.00 0.00 79 1025.0
20260830053103 63 77 2.0 6.0 0.00 0.00 0.00 79 1025.0
20260830052603 63 77 2.0 6.0 0.00 0.00 0.00 79 1025.0
20260830051603 63 77 2.0 6.0 0.00 0.00 0.00 80 1025.0
20260830045103 64 77 2.0 6.0 0.00 0.00 0.00 77 1025.0
20260830044103 64 77 2.0 6.0 0.00 0.00 0.00 75 1025.0
20260830043602 65 77 2.0 6.0 0.00 0.00 0.00 74 1025.0
20260830043103 65 77 2.0 6.0 0.00 0.00 0.00 73 1025.0
20260830042603 65 77 2.0 6.0 0.00 0.00 0.00 72 1024.9
20260830042103 65 77 2.0 6.0 0.00 0.00 0.00 72 1024.9
20260830041603 65 77 2.0 6.0 0.00 0.00 0.00 72 1024.9
20260830041103 65 77 2.0 6.0 0.00 0.00 0.00 73 1024.9
20260830040603 65 77 2.0 6.0 0.00 0.00 0.00 74 1024.8
20260830035603 65 77 2.0 6.0 0.00 0.00 0.00 74 1024.7
20260830035103 65 77 2.0 6.0 0.00 0.00 0.00 75 1024.6
20260830034103 65 77 2.0 6.0 0.00 0.00 0.00 74 1024.5
20260830033603 64 77 2.0 6.0 0.00 0.00 0.00 74 1024.4
20260830033103 64 77 2.0 6.0 0.00 0.00 0.00 74 1024.4
20260830032603 64 77 2.0 6.0 0.00 0.00 0.00 76 1024.3
20260830032103 64 77 2.0 6.0 0.00 0.00 0.00 77 1024.3
20260830031603 64 77 2.0 6.0 0.00 0.00 0.00 77 1024.1
20260830031103 64 77 2.0 6.0 0.00 0.00 0.00 77 1024.2
20260830030603 64 77 2.0 6.0 0.00 0.00 0.00 76 1024.1
20260830030103 65 77 2.0 6.0 0.00 0.00 0.00 74 1023.9
20260830024602 64 77 2.0 6.0 0.00 0.00 0.00 76 1023.8
20260830024103 64 77 2.0 6.0 0.00 0.00 0.00 75 1023.7
20260830023603 64 77 2.0 6.0 0.00 0.00 0.00 75 1023.8
20260830023103 64 77 2.0 6.0 0.00 0.00 0.00 76 1023.7
20260830022603 64 77 2.0 6.0 0.00 0.00 0.00 77 1023.6